Location: Prostejov
(49.4670°N, 17.1170°E)
Time: 10:10:33
(UTC+02:00)

ISS - Pass Details

Date: 22 May 2021
Orbit: 417 x 422 km, 51.6° (Epoch: 13 June)

Event Time Altitude Azimuth Distance (km) Brightness Sun altitude
Rises 21:20:53 0° 267° (W) 2,361 0.8 -6.3°
Reaches altitude 10° 21:22:59 10° 271° (W) 1,499 -0.2 -6.5°
Maximum altitude 21:26:19 61° 352° (N) 482 -3.2 -6.9°
Drops below altitude 10° 21:29:40 10° 74° (ENE) 1,504 -1.2 -7.3°
Sets 21:31:48 0° 78° (ENE) 2,370 -0.3 -7.6°
